Home > Weather > Cuenca > Past weeks

Flag for Ecuador Past Weather in Cuenca, Ecuador — Yesterday and Last 2 Weeks

Now
72 °F

Scattered showers. Passing clouds.


Feels Like: 71 °F
Forecast: 39 / 65 °F
Wind: 9 mph from Southwest

Location: Guayaquil / Simon Bolivar

Current Time: Jul 24, 2016 at 5:52:05 AM

Latest Report: Jul 24, 2016 at 5:00 AM


Visibility: N/A

Pressure: 29.92 "Hg (22.26 "Hg at 2554m altitude)

Humidity: 83%

Dew Point: 66 °F

Location of CuencaLocation

Past Weather in Cuenca — Graph

°F

Cuenca Temperature Yesterday

Maximum temperature yesterday: 88 °F (at 3:00 PM)
Minimum temperature yesterday: 70 °F (at 1:00 AM)
Average temperature yesterday: 78 °F

High & Low Weather Summary for the Past Weeks

 TemperatureHumidityPressure
High88 °F (Jul 11, 3:00 PM)100% (Jul 14, 5:00 AM)29.95 "Hg (Jul 14, 5:00 AM)
Low70 °F (Jul 23, 1:00 AM)55% (Jul 11, 3:00 PM)29.77 "Hg (Jul 11, 4:00 PM)
Average78 °F75%29.88 "Hg
* Reported Jul 9 4:00 AM — Jul 24 4:00 AM, Cuenca, Weather by CustomWeather, © 2016

Note: Actual official high and low records may vary slightly from our data, if they occured in-between our weather recording intervals... More about our weather records

Advertising

Cuenca Weather History for the Previous 24 Hours

Scroll right to see more
 ConditionsComfort  
Time TempWeatherWind HumidityBarometerVisibility
4:00 AM
Sun, Jul 24
72 °FPassing clouds.8 mph88%29.92 "HgN/A
3:00 AM72 °FPassing clouds.10 mph88%29.89 "HgN/A
2:00 AM72 °FPassing clouds.10 mph88%29.89 "HgN/A
1:00 AM73 °FPassing clouds.9 mph83%29.89 "HgN/A
12:00 AM73 °FClear.10 mph78%29.89 "Hg10 mi
11:00 PM
Sat, Jul 23
73 °FClear.15 mph78%29.89 "Hg10 mi
10:00 PM73 °FClear.16 mph78%29.86 "Hg10 mi
9:00 PM77 °FClear.16 mph69%29.83 "Hg10 mi
8:00 PM79 °FClear.15 mph74%29.83 "Hg10 mi
7:00 PM81 °FPassing clouds.10 mph70%29.83 "HgN/A
6:00 PM86 °FScattered clouds.6 mph62%29.80 "HgN/A
5:00 PM88 °FScattered clouds.7 mph55%29.80 "HgN/A
4:00 PM88 °FScattered clouds.8 mph59%29.80 "HgN/A
3:00 PM88 °FPassing clouds.6 mph55%29.83 "HgN/A
2:00 PM86 °FPassing clouds.6 mph59%29.86 "HgN/A
1:00 PM84 °FPassing clouds.5 mph62%29.89 "HgN/A
12:00 PM82 °FPassing clouds.6 mph66%29.89 "HgN/A
11:00 AM81 °FScattered clouds.6 mph70%29.92 "HgN/A
10:00 AM77 °FPartly sunny.2 mph79%29.92 "HgN/A
9:00 AM75 °FPartly sunny.2 mph83%29.92 "HgN/A
8:00 AM73 °FPartly sunny.2 mph83%29.92 "HgN/A
7:00 AM72 °FMostly cloudy.3 mph94%29.89 "HgN/A
6:00 AM72 °FPartly cloudy.1 mph88%29.89 "HgN/A
5:00 AM70 °FPartly cloudy.1 mph94%29.89 "HgN/A
Weather by CustomWeather, © 2016

See weather overviewHow to use our weather pages